Location: Recife
(8.0585°S, 34.8848°W)
Time: 10:45:02
(UTC-03:00)

Vanguard 2 - Pass Details

Date: 20 April 2026
Orbit: 554 x 2894 km, 32.9° (Epoch: 8 May)

Event Time Altitude Azimuth Distance (km) Brightness Sun altitude
Rises 07:04:01 0° 260° (W) 5,434 11.3 23.8°
Reaches altitude 10° 07:09:36 10° 276° (W) 3,914 10.7 25.1°
Maximum altitude 07:15:31 18° 314° (NW) 2,764 10.2 26.5°
Drops below altitude 10° 07:20:03 10° 354° (N) 2,837 10.7 27.5°
Sets 07:23:14 0° 15° (NNE) 3,459 11.3 28.3°
